SM2FXT-13 Weather Reports


time (UTC)temp
C
wind
direction
speed
KPH
gust
KPH
rain 1hr
cm
rain 24hr
cm
rain mn
cm
humidity
%
barometer
mb
20260508083003 15 280 4.8 12.9 0.00 0.23 0.00 38 1024.0
20260508082003 15 226 3.2 12.9 0.00 0.23 0.00 38 1023.8
20260508081003 14 227 4.8 11.3 0.00 0.23 0.00 40 1024.0
20260508080003 15 267 3.2 11.3 0.00 0.23 0.00 39 1024.0
20260508075003 14 273 3.2 11.3 0.00 0.23 0.00 41 1024.0
20260508074003 14 248 3.2 11.3 0.00 0.23 0.00 43 1023.9
20260508071003 13 255 3.2 11.3 0.00 0.23 0.00 42 1023.8
20260508070004 15 161 1.6 6.4 0.00 0.23 0.00 42 1023.7
20260508065003 15 339 1.6 6.4 0.00 0.23 0.00 44 1023.7
20260508064003 15 307 1.6 4.8 0.00 0.23 0.00 49 1023.7
20260508063003 13 210 1.6 6.4 0.00 0.23 0.00 51 1023.6
20260508062003 13 314 1.6 4.8 0.00 0.23 0.00 51 1023.6
20260508061003 13 161 1.6 6.4 0.00 0.23 0.00 51 1023.6
20260508055003 11 249 1.6 8.0 0.00 0.23 0.00 56 1023.3
20260508054003 11 215 1.6 6.4 0.00 0.23 0.00 56 1023.3
20260508053004 11 243 1.6 6.4 0.00 0.23 0.00 57 1023.3
20260508052003 11 287 1.6 4.8 0.00 0.23 0.00 57 1023.0
20260508051003 11 253 1.6 4.8 0.00 0.23 0.00 59 1022.9
20260508050004 11 230 1.6 6.4 0.00 0.23 0.00 60 1022.8
20260508045003 11 231 0.0 4.8 0.00 0.23 0.00 63 1022.8
20260508043004 11 123 0.0 4.8 0.00 0.23 0.00 77 1022.7
20260508042004 10 0 0.0 0.0 0.00 0.23 0.00 87 1022.7
20260508041003 9 0 0.0 0.0 0.00 0.23 0.00 94 1022.7
20260508040005 8 0 0.0 0.0 0.00 0.23 0.00 100 1022.4
20260508035003 6 0 0.0 1.6 0.00 0.23 0.00 100 1022.3
20260508034003 3 0 0.0 1.6 0.00 0.23 0.00 100 1022.2
20260508033003 1 0 0.0 1.6 0.00 0.23 0.00 100 1022.2
20260508032003 0 0 0.0 1.6 0.00 0.23 0.00 100 1022.2
20260508031003 -1 0 0.0 0.0 0.00 0.23 0.00 100 1022.1
20260508025003 -2 0 0.0 1.6 0.00 0.23 0.00 100 1022.0
20260508024003 -2 0 0.0 0.0 0.00 0.23 0.00 100 1021.8
20260508023004 -2 0 0.0 0.0 0.00 0.23 0.00 100 1021.7
20260508022003 -2 0 0.0 1.6 0.00 0.23 0.00 100 1021.6
20260508021004 -2 0 0.0 1.6 0.00 0.23 0.00 100 1021.6
20260508020004 -2 0 0.0 1.6 0.00 0.23 0.00 100 1021.5
20260508015003 -2 0 0.0 1.6 0.00 0.23 0.00 100 1021.3
20260508014003 -2 0 0.0 1.6 0.00 0.23 0.00 100 1021.3
20260508013004 -2 185 0.0 1.6 0.00 0.23 0.00 100 1021.3
20260508012003 -2 187 0.0 1.6 0.00 0.23 0.00 100 1021.1
20260508011003 -2 0 0.0 1.6 0.00 0.23 0.00 100 1020.9
20260508010004 -2 0 0.0 1.6 0.00 0.23 0.00 100 1020.8
20260508005003 -2 181 0.0 1.6 0.00 0.23 0.00 100 1020.7
20260508004004 -2 181 0.0 1.6 0.00 0.23 0.00 100 1020.8
20260508003004 -2 0 0.0 4.8 0.00 0.23 0.00 100 1020.6
20260508002004 -2 210 1.6 4.8 0.00 0.23 0.00 100 1020.5
20260508001004 -2 181 0.0 1.6 0.00 0.23 0.00 100 1020.5
20260508000004 -2 0 0.0 1.6 0.00 0.23 0.00 100 1020.4
20260507235004 -1 0 0.0 0.0 0.00 0.23 0.00 100 1020.4
20260507234004 -1 0 0.0 0.0 0.00 0.23 0.00 100 1020.2
20260507232002 -1 0 0.0 1.6 0.00 0.23 0.00 100 1020.0
20260507231002 -1 0 0.0 1.6 0.00 0.23 0.00 100 1019.8
20260507230002 -1 181 0.0 1.6 0.00 0.23 0.00 100 1019.8
20260507225002 -1 187 0.0 1.6 0.00 0.23 0.00 100 1019.7
20260507224002 -1 0 0.0 1.6 0.00 0.23 0.00 100 1019.7
20260507223002 -1 0 0.0 1.6 0.00 0.23 0.00 100 1019.3
20260507215002 0 0 0.0 1.6 0.00 0.23 0.23 100 1019.2
20260507214002 0 0 0.0 1.6 0.00 0.23 0.23 100 1018.9
20260507212002 0 239 0.0 1.6 0.00 0.23 0.23 100 1018.8
20260507210003 0 188 0.0 1.6 0.00 0.23 0.23 98 1018.5
20260507205002 1 0 0.0 1.6 0.00 0.23 0.23 98 1018.4
20260507203003 1 0 0.0 0.0 0.00 0.23 0.23 94 1018.4
20260507202002 1 0 0.0 0.0 0.00 0.23 0.23 94 1018.3
20260507201002 1 0 0.0 0.0 0.00 0.23 0.23 92 1018.2
20260507200002 2 0 0.0 0.0 0.00 0.23 0.23 90 1018.1
20260507195002 2 0 0.0 1.6 0.00 0.23 0.23 88 1018.0
20260507194002 3 0 0.0 1.6 0.00 0.23 0.23 87 1017.7
20260507193003 3 0 0.0 1.6 0.00 0.23 0.23 85 1017.6
20260507191002 5 181 1.6 1.6 0.00 0.23 0.23 83 1017.5
20260507190004 5 0 0.0 1.6 0.00 0.23 0.23 81 1017.3
20260507184003 6 28 0.0 4.8 0.00 0.23 0.23 79 1016.9
20260507183003 6 218 1.6 1.6 0.00 0.23 0.23 79 1016.9
20260507182002 6 192 0.0 4.8 0.00 0.23 0.23 77 1016.8
20260507181002 6 233 1.6 6.4 0.00 0.23 0.23 77 1016.8
20260507180004 6 223 1.6 11.3 0.00 0.23 0.23 76 1016.7
20260507173003 7 227 3.2 12.9 0.00 0.23 0.23 74 1016.4
20260507172003 7 237 3.2 12.9 0.00 0.23 0.23 73 1016.4
20260507171003 7 232 1.6 6.4 0.00 0.23 0.23 73 1016.3
20260507170003 7 233 1.6 11.3 0.00 0.23 0.23 73 1016.3
20260507165002 7 228 1.6 6.4 0.00 0.23 0.23 73 1016.1
20260507164002 7 239 1.6 8.0 0.00 0.23 0.23 73 1016.0
20260507163003 7 255 1.6 6.4 0.00 0.23 0.23 72 1016.0
20260507162002 7 226 1.6 4.8 0.00 0.23 0.23 72 1016.0
20260507161002 8 256 1.6 6.4 0.00 0.23 0.23 71 1016.0
20260507160003 8 273 3.2 6.4 0.00 0.23 0.23 72 1015.8
20260507155003 8 265 3.2 12.9 0.00 0.23 0.23 71 1015.8
20260507154002 8 286 1.6 12.9 0.00 0.23 0.23 67 1015.7
20260507153003 8 317 1.6 6.4 0.00 0.23 0.23 73 1015.8
20260507152002 7 320 1.6 4.8 0.00 0.23 0.23 75 1015.6
20260507151002 7 257 1.6 6.4 0.00 0.23 0.23 75 1015.6
20260507145002 7 278 1.6 6.4 0.00 0.23 0.23 75 1015.5
20260507143003 7 289 3.2 12.9 0.00 0.23 0.23 72 1015.4
20260507140004 11 212 3.2 8.0 0.00 0.23 0.23 61 1015.2
20260507135002 11 261 3.2 12.9 0.00 0.23 0.23 57 1014.9
20260507134003 11 236 3.2 12.9 0.00 0.23 0.23 69 1015.0
20260507133003 10 254 4.8 14.5 0.00 0.23 0.23 68 1015.0
20260507131003 10 184 3.2 14.5 0.00 0.23 0.23 75 1015.0
20260507130003 10 186 4.8 14.5 0.00 0.23 0.23 74 1014.8
20260507125003 9 168 4.8 17.7 0.00 0.23 0.23 77 1014.8
20260507123004 10 143 4.8 12.9 0.00 0.23 0.23 81 1014.8
20260507122003 8 138 4.8 12.9 0.00 0.23 0.23 83 1014.8
20260507120004 7 199 3.2 8.0 0.00 0.23 0.23 88 1014.8
20260507115003 6 52 3.2 8.0 0.03 0.23 0.23 91 1014.8
20260507114002 5 127 3.2 11.3 0.03 0.23 0.23 94 1014.8
20260507112003 3 138 4.8 11.3 0.03 0.23 0.23 96 1014.8
20260507110004 3 166 4.8 12.9 0.10 0.23 0.23 98 1015.0
20260507105002 3 108 1.6 6.4 0.13 0.20 0.20 97 1015.1
20260507104003 3 110 1.6 6.4 0.15 0.20 0.20 97 1015.2
20260507102003 3 116 3.2 11.3 0.20 0.20 0.20 93 1015.1
20260507101002 4 157 3.2 11.3 0.18 0.18 0.18 91 1014.9
20260507100003 4 132 4.8 8.0 0.15 0.15 0.15 91 1014.4
20260507095003 4 94 4.8 11.3 0.10 0.10 0.10 90 1014.3
20260507094003 3 145 0.0 4.8 0.03 0.03 0.03 86 1014.3
20260507093003 4 258 1.6 6.4 0.00 0.00 0.00 84 1014.5
20260507092003 5 279 1.6 6.4 0.00 0.00 0.00 82 1014.4
20260507091002 7 259 3.2 14.5 0.00 0.00 0.00 73 1014.2
20260507090005 8 303 3.2 11.3 0.00 0.00 0.00 62 1014.0
20260507085002 10 307 3.2 12.9 0.00 0.00 0.00 54 1013.7
20260507084003 11 160 4.8 14.5 0.00 0.00 0.00 49 1013.6